Hourly Data Report for March 28, 2017

MIRAMICHI RCS
NEW BRUNSWICK

47°00'34.000" N
65°27'54.000" W
33.00 m
8100989
71744
ACQ

Download Data

Hourly Data (March 2017)
Hourly Data Report for March 28, 2017
TIME
LST
Temp Definition
°C
Dew Point Definition
°C
Rel Hum Definition
%
Precip. Amount Definition
mm

Wind Dir Definition
10's deg

Wind Spd Definition
km/h
Visibility Definition
km
Stn Press Definition
kPa
Hmdx Definition


Wind Chill Definition


Weather Definition


00:00 -4.3 -5.4 92 0.2 7 12   101.87   -9 LegendNANA
01:00 -4.2 -5.3 92 0.0 7 13   101.80   -9 LegendNANA
02:00 -4.2 -5.3 92 0.3 7 12   101.72   -9 LegendNANA
03:00 -4.0 -5.1 92 0.2 7 11   101.68   -8 LegendNANA
04:00 -4.0 -5.1 92 0.0 6 10   101.66   -8 LegendNANA
05:00 -3.9 -5.0 93 0.0 5 9   101.64   -8 LegendNANA
06:00 -3.8 -4.8 93 0.0 7 13   101.58   -9 LegendNANA
07:00 -3.5 -4.7 92 0.0 5 6   101.65   -6 LegendNANA
08:00 -3.0 -4.5 90 0.0 6 11   101.66   -7 LegendNANA
09:00 -2.6 -4.1 89 0.0 9 13   101.64   -7 LegendNANA
10:00 -2.0 -4.0 86 0.0 9 18   101.62   -7 LegendNANA
11:00 -1.6 -3.3 88 0.2 7 14   101.63   -6 LegendNANA
12:00 -1.4 -3.1 88 0.2 9 16   101.59   -6 LegendNANA
13:00 -1.0 -2.9 87 0.0 8 17   101.54   -6 LegendNANA
14:00 -1.3 -2.9 89 0.0 6 14   101.50   -6 LegendNANA
15:00 -1.8 -3.4 89 0.2 6 17   101.45   -7 LegendNANA
16:00 -2.1 -3.5 90 0.0 6 17   101.40   -7 LegendNANA
17:00 -2.4 -3.6 91 0.2 6 14   101.40   -7 LegendNANA
18:00 -2.5 -3.5 93 0.3 5 12   101.41   -7 LegendNANA
19:00 -2.6 -3.5 94 0.6 4 9   101.43   -6 LegendNANA
20:00 -2.5 -3.3 94 0.6 6 10   101.45   -6 LegendNANA
21:00 -2.5 -3.3 94 0.5 5 10   101.44   -6 LegendNANA
22:00 -2.5 -3.3 95 0.8 5 10   101.44   -6 LegendNANA
23:00 -2.7 -3.5 94 0.9 6 10   101.40   -7 LegendNANA

Notes on Data Quality.

Legend

  • E = Estimated
  • M = Missing
  • NA = Not Available*
  • [empty] = Indicates an unobserved value
Date modified: